QPF
0.00 0.00 0.00 0.00 0.00 0.00 0.00 0.00 0.00 0.01 0.02 0.00 0.00 0.00 0.00 0.00 0.00 0.00 0.00 0.00 0.00 0.00 0.00 0.00 0.00 0.00 0.00 0.00 0.01 0.03 0.05 0.01 0.00
0.00 0.00 0.00 0.00 0.00 0.00 0.00 0.00 0.00 0.00 0.00 0.00 0.00 0.00 0.00 0.00 0.00 0.00 0.00 0.00 0.00 0.00 0.00 0.00 0.00 0.00 0.00 0.00 0.00 0.01 0.03 0.00 0.00
0.00 0.00 0.00 0.00 0.00 0.00 0.00 0.00 0.00 0.00 0.00 0.00 0.00 0.00 0.00 0.00 0.00 0.00 0.00 0.00 0.00 0.00 0.00 0.00 0.00 0.00 0.00 0.00 0.00 0.00 0.01 0.00 0.01
0.00 0.00 0.00 0.00 0.00 0.00 0.00 0.00 0.00 0.00 0.00 0.00 0.00 0.00 0.01 0.00 0.00 0.00 0.00 0.00 0.00 0.00 0.00 0.00 0.00 0.00 0.00 0.00 0.00 0.00 0.00 0.00 0.00
0.00 0.00 0.00 0.00 0.00 0.00 0.00 0.00 0.00 0.00 0.00 0.00 0.00 0.00 0.01 0.00 0.00 0.00 0.01 0.00 0.00 0.00 0.00 0.00 0.00 0.00 0.00 0.00 0.00 0.00 0.00 0.00 0.00
0.00 0.00 0.00 0.00 0.00 0.00 0.00 0.00 0.00 0.00 0.00 0.00 0.00 0.00 0.00 0.00 0.00 0.00 0.00 0.00 0.00 0.00 0.00 0.00 0.00 0.00 0.01 0.02 0.00 0.00 0.00 0.00 0.00
0.00 0.00 0.00 0.00 0.00 0.00 0.00 0.00 0.00 0.00 0.00 0.00 0.00 0.00 0.00 0.00 0.00 0.00 0.00 0.02 0.00 0.00 0.00 0.01 0.08 0.23 0.17 0.08 0.01 0.00 0.00 0.00 0.00
0.00 0.00 0.00 0.00 0.00 0.00 0.00 0.00 0.00 0.00 0.00 0.00 0.00 0.00 0.00 0.00 0.00 0.00 0.00 0.01 0.01 0.02 0.04 0.36 0.64 0.62 0.27 0.04 0.00 0.03 0.04 0.01 0.00
0.00 0.00 0.00 0.00 0.00 0.00 0.00 0.00 0.00 0.00 0.00 0.00 0.00 0.00 0.00 0.00 0.00 0.00 0.00 0.00 0.00 0.01 0.21 0.93 1.09 0.70 0.08 0.02 0.08 0.30 0.50 0.31 0.16
0.00 0.00 0.00 0.00 0.00 0.00 0.00 0.00 0.00 0.00 0.00 0.00 0.00 0.00 0.00 0.00 0.00 0.00 0.00 0.00 0.00 0.04 0.68 0.91 0.92 0.56 0.33 0.08 0.12 0.27 0.31 0.29 0.13
0.00 0.00 0.00 0.00 0.00 0.00 0.00 0.00 0.00 0.00 0.00 0.00 0.00 0.00 0.00 0.00 0.00 0.00 0.00 0.00 0.00 0.01 0.47 0.59 0.74 1.06 0.80 0.15 0.16 0.33 0.14 0.07 0.03
0.00 0.00 0.00 0.01 0.01 0.00 0.00 0.00 0.00 0.00 0.00 0.00 0.00 0.00 0.00 0.00 0.00 0.00 0.00 0.00 0.00 0.06 0.19 0.28 0.66 0.76 0.47 0.15 0.10 0.28 0.16 0.10 0.01
0.00 0.00 0.00 0.00 0.00 0.00 0.00 0.00 0.00 0.00 0.00 0.00 0.00 0.00 0.00 0.00 0.00 0.00 0.00 0.00 0.00 0.03 0.02 0.08 0.12 0.13 0.05 0.09 0.11 0.15 0.11 0.05 0.00
0.00 0.00 0.00 0.00 0.00 0.00 0.00 0.00 0.00 0.00 0.00 0.00 0.00 0.00 0.00 0.00 0.00 0.00 0.00 0.00 0.00 0.02 0.02 0.03 0.01 0.01 0.02 0.03 0.03 0.01 0.00 0.00 0.00
0.00 0.01 0.01 0.01 0.00 0.00 0.00 0.00 0.00 0.00 0.00 0.00 0.00 0.00 0.00 0.00 0.00 0.00 0.00 0.00 0.00 0.00 0.01 0.01 0.00 0.00 0.00 0.00 0.00 0.00 0.00 0.00 0.00
0.03 0.03 0.02 0.01 0.00 0.00 0.00 0.00 0.00 0.00 0.00 0.00 0.00 0.00 0.00 0.00 0.00 0.00 0.00 0.00 0.00 0.01 0.00 0.00 0.00 0.00 0.00 0.00 0.00 0.00 0.00 0.00 0.00
0.00 0.00 0.00 0.00 0.00 0.00 0.00 0.00 0.00 0.00 0.00 0.00 0.00 0.00 0.00 0.00 0.00 0.00 0.00 0.00 0.00 0.00 0.00 0.00 0.00 0.00 0.00 0.00 0.00 0.00 0.00 0.00 0.00
0.00 0.00 0.00 0.00 0.00 0.00 0.00 0.00 0.00 0.00 0.00 0.00 0.00 0.00 0.00 0.00 0.00 0.00 0.00 0.00 0.00 0.00 0.00 0.00 0.00 0.00 0.00 0.00 0.00 0.00 0.00 0.00 0.00
0.00 0.00 0.00 0.00 0.00 0.00 0.00 0.00 0.00 0.00 0.00 0.00 0.00 0.00 0.00 0.00 0.00 0.00 0.00 0.00 0.00 0.00 0.00 0.00 0.00 0.00 0.00 0.00 0.00 0.00 0.00 0.03 0.05
0.00 0.00 0.00 0.00 0.00 0.00 0.00 0.00 0.00 0.00 0.00 0.00 0.00 0.00 0.00 0.00 0.00 0.00 0.00 0.00 0.00 0.00 0.00 0.00 0.00 0.00 0.00 0.00 0.00 0.00 0.00 0.08 0.08
MSLP
1007.21 1006.73 1006.58 1007.18 1007.81 1008.56 1009.27 1010.05 1010.68 1011.40 1012.22 1012.70 1013.32 1013.94 1014.43 1014.86 1015.20 1015.36 1015.64 1015.97 1016.14 1016.45 1016.58 1016.76 1016.80 1017.13 1017.30 1017.52 1017.69 1017.91 1018.15 1018.41 1018.67
1007.25 1006.99 1006.73 1006.88 1007.56 1008.23 1008.92 1009.55 1010.06 1010.68 1011.56 1012.10 1012.56 1012.90 1013.51 1013.96 1014.49 1014.78 1014.91 1015.31 1015.79 1015.98 1016.32 1016.40 1016.65 1016.74 1016.95 1017.02 1017.21 1017.38 1017.57 1018.03 1018.31
1007.20 1006.95 1006.95 1006.77 1007.13 1007.75 1008.35 1008.88 1009.51 1010.23 1010.78 1011.22 1011.68 1012.18 1012.68 1013.15 1013.54 1014.07 1014.45 1014.93 1015.21 1015.44 1015.73 1016.08 1016.18 1016.48 1016.72 1016.82 1016.91 1016.97 1017.35 1017.56 1017.99
1007.91 1007.48 1007.13 1006.94 1007.11 1007.65 1008.15 1008.78 1009.33 1009.88 1010.46 1010.88 1011.20 1011.73 1012.33 1012.63 1012.85 1013.22 1013.80 1014.15 1014.55 1014.98 1015.24 1015.44 1015.83 1016.09 1016.38 1016.57 1016.68 1016.81 1016.94 1017.12 1017.39
1008.61 1008.29 1007.70 1007.52 1007.57 1007.93 1008.53 1008.91 1009.23 1009.73 1010.16 1010.45 1010.75 1011.26 1011.95 1012.22 1012.48 1012.75 1013.11 1013.55 1013.80 1014.25 1014.49 1014.77 1015.18 1015.71 1016.10 1016.26 1016.40 1016.60 1016.76 1016.63 1016.72
1009.21 1008.99 1008.76 1008.51 1008.24 1008.41 1008.88 1009.10 1009.19 1009.50 1009.99 1010.20 1010.37 1010.86 1011.30 1011.57 1011.87 1012.17 1012.28 1012.73 1013.18 1013.38 1013.71 1014.34 1014.76 1015.12 1015.46 1015.75 1015.92 1016.26 1016.47 1016.51 1016.44
1009.79 1009.80 1009.87 1009.51 1009.07 1008.88 1009.40 1009.44 1009.43 1009.54 1009.67 1009.85 1010.11 1010.25 1010.50 1010.79 1011.19 1011.45 1011.67 1012.17 1012.67 1012.73 1013.30 1014.02 1014.62 1015.08 1015.11 1015.20 1015.16 1015.20 1015.52 1015.80 1016.01
1010.40 1010.50 1010.46 1010.59 1010.22 1009.75 1009.89 1009.82 1009.73 1009.58 1009.52 1009.61 1009.66 1009.90 1010.08 1010.28 1010.56 1010.74 1011.18 1011.86 1012.18 1012.24 1013.38 1014.13 1014.99 1014.87 1015.01 1015.03 1014.94 1014.79 1014.73 1015.03 1015.31
1011.05 1011.45 1011.63 1011.46 1011.39 1010.51 1010.62 1010.20 1009.90 1009.74 1009.38 1009.40 1009.67 1009.90 1009.91 1010.05 1010.30 1010.46 1010.87 1011.50 1011.59 1011.95 1012.60 1012.96 1014.94 1013.12 1014.02 1015.75 1015.50 1014.65 1014.35 1014.46 1014.71
1012.12 1012.45 1012.38 1012.19 1012.19 1011.29 1011.72 1011.31 1010.65 1009.89 1009.78 1009.71 1009.83 1010.02 1010.02 1010.13 1010.25 1010.28 1010.65 1011.16 1011.17 1011.51 1012.37 1012.61 1013.66 1012.90 1014.71 1015.73 1014.69 1014.42 1013.84 1013.79 1013.65
1013.16 1013.53 1013.55 1013.57 1012.97 1012.85 1012.46 1011.81 1010.92 1011.03 1010.51 1010.52 1010.42 1010.39 1010.17 1010.11 1010.03 1009.92 1010.11 1010.51 1010.62 1010.98 1012.07 1012.87 1013.37 1013.83 1013.21 1012.38 1012.84 1012.99 1013.00 1013.13 1013.17
1014.27 1014.36 1014.29 1014.36 1014.30 1013.79 1013.01 1012.35 1012.01 1011.93 1011.83 1011.25 1010.96 1010.76 1010.46 1010.21 1009.93 1009.67 1009.67 1010.00 1009.90 1010.38 1011.61 1012.40 1012.70 1011.99 1010.65 1009.45 1010.10 1011.25 1011.72 1012.89 1012.76
1015.27 1015.09 1014.87 1014.85 1014.83 1014.79 1014.67 1013.87 1012.86 1012.43 1012.11 1011.72 1011.56 1011.35 1010.93 1010.33 1009.90 1009.62 1009.37 1009.32 1009.53 1009.76 1010.54 1010.91 1010.77 1010.29 1009.89 1009.95 1010.00 1009.26 1010.34 1011.42 1011.65
1015.99 1015.74 1015.57 1015.31 1015.00 1015.25 1015.45 1015.06 1014.00 1013.11 1012.80 1012.52 1012.23 1011.56 1011.00 1010.58 1010.14 1009.72 1009.35 1009.12 1009.04 1009.31 1009.58 1010.07 1010.06 1009.99 1010.06 1010.08 1009.80 1010.29 1010.08 1010.61 1010.97
1017.10 1016.91 1016.20 1015.88 1015.15 1015.15 1015.97 1016.03 1015.72 1014.39 1013.69 1013.51 1012.66 1011.68 1011.20 1010.99 1010.61 1009.99 1009.49 1009.16 1008.87 1008.97 1009.19 1009.53 1009.53 1009.44 1009.45 1009.42 1009.47 1009.32 1009.69 1010.09 1010.32
1017.49 1017.73 1017.52 1017.04 1016.44 1014.82 1015.78 1016.58 1016.40 1014.96 1014.18 1013.74 1013.08 1012.25 1011.73 1011.39 1010.90 1010.39 1010.04 1009.52 1009.19 1008.94 1009.05 1009.09 1008.97 1009.15 1008.96 1008.75 1009.02 1009.48 1009.30 1009.34 1009.63
1018.13 1018.08 1017.24 1017.33 1015.15 1015.14 1016.71 1017.18 1016.54 1015.54 1014.65 1014.10 1013.52 1012.76 1012.20 1011.67 1011.15 1010.71 1010.16 1009.72 1009.38 1009.06 1008.74 1008.88 1008.87 1008.97 1009.15 1009.31 1009.26 1009.23 1009.22 1009.09 1009.68
1018.24 1018.04 1017.53 1017.30 1017.31 1017.51 1017.61 1017.47 1016.69 1015.62 1014.88 1014.42 1013.81 1013.29 1012.67 1012.02 1011.43 1010.81 1010.28 1009.94 1009.70 1009.49 1009.11 1009.41 1009.54 1009.75 1010.05 1009.42 1009.12 1008.81 1008.81 1008.55 1009.03
1018.84 1018.71 1018.52 1018.50 1018.45 1018.30 1018.07 1017.14 1016.20 1015.57 1015.12 1014.86 1014.39 1013.69 1012.94 1012.38 1011.96 1011.21 1010.47 1009.87 1009.45 1009.48 1009.53 1009.45 1009.54 1009.87 1009.91 1009.53 1009.54 1009.29 1009.43 1009.21 1009.07
1019.60 1019.48 1019.32 1019.09 1018.85 1018.47 1017.97 1017.24 1016.26 1015.55 1015.15 1014.86 1014.48 1014.01 1013.43 1012.77 1012.06 1011.29 1010.70 1010.12 1009.70 1009.28 1008.47 1008.71 1008.77 1008.95 1009.06 1009.04 1008.81 1008.67 1008.71 1008.95 1009.29
Thickness
5859 5863 5869 5863 5860 5856 5852 5847 5845 5838 5826 5822 5819 5813 5808 5804 5801 5800 5796 5792 5790 5786 5783 5781 5780 5777 5775 5774 5773 5772 5772 5773 5773
5852 5857 5863 5863 5860 5857 5852 5848 5846 5843 5833 5829 5826 5823 5816 5811 5806 5803 5800 5797 5793 5789 5785 5782 5779 5778 5777 5776 5775 5774 5773 5772 5771
5851 5859 5859 5862 5862 5859 5857 5854 5850 5845 5841 5834 5831 5827 5822 5816 5812 5807 5803 5798 5794 5791 5788 5782 5781 5779 5777 5777 5776 5774 5773 5773 5770
5843 5848 5855 5860 5862 5859 5856 5854 5849 5844 5839 5835 5831 5828 5822 5818 5815 5812 5807 5802 5797 5792 5789 5786 5782 5779 5777 5775 5774 5774 5774 5773 5771
5837 5843 5851 5856 5857 5854 5850 5849 5847 5842 5839 5836 5834 5830 5823 5819 5818 5814 5808 5803 5800 5796 5792 5790 5784 5778 5773 5772 5772 5771 5770 5771 5772
5831 5835 5839 5845 5849 5847 5845 5845 5845 5843 5839 5836 5836 5830 5825 5822 5818 5815 5811 5806 5801 5799 5796 5790 5786 5781 5777 5773 5771 5767 5766 5768 5768
5827 5827 5828 5834 5839 5841 5841 5842 5842 5841 5841 5840 5836 5834 5830 5824 5821 5819 5815 5809 5803 5802 5797 5787 5780 5775 5773 5772 5772 5770 5768 5767 5765
5819 5818 5821 5823 5827 5835 5837 5838 5838 5841 5842 5840 5839 5833 5829 5825 5823 5821 5817 5809 5804 5804 5789 5778 5770 5767 5761 5762 5768 5769 5770 5768 5766
5809 5808 5808 5812 5815 5825 5827 5833 5836 5838 5840 5840 5837 5830 5827 5825 5820 5817 5812 5807 5806 5801 5782 5773 5748 5778 5760 5744 5751 5760 5764 5766 5764
5797 5798 5800 5802 5804 5815 5810 5821 5828 5834 5835 5836 5832 5827 5824 5821 5817 5813 5807 5802 5802 5798 5787 5775 5740 5748 5732 5741 5754 5751 5759 5758 5756
5787 5786 5787 5790 5799 5801 5807 5815 5823 5822 5827 5824 5822 5819 5819 5818 5816 5812 5808 5802 5800 5798 5784 5773 5767 5755 5758 5761 5762 5763 5760 5758 5759
5780 5781 5783 5782 5785 5792 5801 5808 5811 5809 5808 5811 5812 5811 5812 5813 5812 5810 5807 5801 5803 5798 5783 5776 5770 5771 5781 5789 5780 5773 5764 5754 5756
5771 5775 5777 5776 5778 5779 5780 5789 5800 5800 5800 5801 5799 5799 5802 5807 5808 5807 5805 5802 5800 5799 5790 5784 5783 5785 5785 5782 5780 5782 5773 5766 5762
5763 5766 5768 5772 5775 5770 5768 5772 5783 5788 5788 5787 5789 5795 5798 5799 5801 5801 5802 5800 5799 5796 5792 5787 5785 5782 5780 5777 5777 5774 5771 5769 5765
5746 5748 5755 5760 5767 5766 5759 5758 5759 5769 5773 5774 5780 5788 5789 5789 5790 5793 5795 5795 5796 5792 5789 5784 5783 5782 5779 5778 5775 5772 5771 5766 5763
5735 5731 5734 5739 5745 5761 5753 5746 5746 5756 5762 5765 5769 5774 5777 5778 5781 5783 5784 5786 5786 5787 5785 5783 5782 5778 5776 5777 5774 5770 5767 5766 5763
5723 5723 5730 5730 5751 5749 5733 5730 5734 5741 5749 5755 5757 5760 5764 5768 5771 5771 5776 5779 5780 5781 5781 5778 5777 5773 5768 5766 5766 5763 5764 5765 5758
5715 5716 5721 5725 5723 5720 5717 5718 5723 5732 5737 5741 5745 5746 5751 5756 5761 5764 5767 5768 5769 5770 5770 5767 5766 5761 5753 5757 5757 5759 5760 5761 5756
5701 5703 5705 5703 5703 5704 5704 5711 5717 5722 5724 5726 5729 5734 5739 5743 5745 5750 5755 5758 5760 5759 5756 5753 5749 5745 5746 5749 5747 5744 5741 5743 5744
5687 5686 5687 5687 5689 5692 5696 5701 5708 5712 5715 5716 5718 5720 5724 5728 5731 5737 5741 5743 5744 5744 5754 5752 5748 5743 5741 5740 5743 5743 5739 5736 5731